{"data":{"norad_id":58381,"intl_designator":"2023-178H","name":"STARLINK-30923","alt_names":[],"object_type":"PAYLOAD","status":"ACTIVE","operator":null,"country":"US","launch_date":"2023-11-20","launch_site_code":"AFWTR","launch_vehicle":null,"mission":null,"orbit_class":"UNKNOWN","rcs_meters":null,"size_class":null,"mass_kg":null,"dimensions":null,"purposes":["comms"],"wikipedia_slug":null,"has_3d_model":false,"image_url":null,"decayed_at":null,"tle_current":{"epoch":"2026-05-24T23:03:31.165632Z","epoch_age_seconds":78557,"freshness":"FRESH","line1":"1 58381U 23178H   26144.96077738  .00025987  00000+0  80437-3 0  9995","line2":"2 58381  53.1618   6.4235 0001218 123.0711 237.0408 15.33325596141505","mean_motion":15.33325596,"eccentricity":0.0001218,"inclination_deg":53.1618,"raan_deg":6.4235,"arg_perigee_deg":123.0711,"mean_anomaly_deg":237.0408,"bstar":0.00080437,"rev_number":14150,"period_min":93.913517374036,"perigee_km":465.06485630939,"apogee_km":466.7320633474,"semimajor_km":6844.0354598284,"source":"CELESTRAK","updated_at":"2026-05-25T13:38:18.613078Z"}}}